TimePST,TemperatureF,Dew PointF,Humidity,Sea Level PressureIn,VisibilityMPH,Wind Direction,Wind SpeedMPH,Gust SpeedMPH,PrecipitationIn,Events,Conditions,WindDirDegrees,DateUTC
12:15 AM,46.4,26.6,46,29.77,10.0,SSW,11.5,26.5,N/A,,Overcast,210,2013-03-06 08:15:00
12:35 AM,44.6,24.8,46,29.77,10.0,SSW,13.8,19.6,N/A,,Overcast,210,2013-03-06 08:35:00
12:55 AM,44.6,23.0,43,29.78,10.0,SSE,10.4,-,N/A,,Overcast,150,2013-03-06 08:55:00
1:15 AM,41.0,23.0,49,29.77,10.0,SE,12.7,18.4,N/A,,Overcast,130,2013-03-06 09:15:00
1:35 AM,41.0,23.0,49,29.78,10.0,SSE,11.5,20.7,N/A,,Overcast,150,2013-03-06 09:35:00
1:55 AM,42.8,23.0,46,29.78,10.0,South,19.6,32.2,N/A,,Overcast,190,2013-03-06 09:55:00
2:15 AM,39.2,24.8,56,29.78,10.0,South,10.4,17.3,N/A,,Overcast,170,2013-03-06 10:15:00
2:35 AM,39.2,24.8,56,29.77,10.0,South,12.7,20.7,N/A,,Overcast,180,2013-03-06 10:35:00
2:55 AM,39.2,26.6,61,29.76,10.0,South,11.5,29.9,N/A,,Overcast,180,2013-03-06 10:55:00
3:15 AM,37.4,26.6,65,29.76,10.0,South,13.8,21.9,N/A,,Overcast,180,2013-03-06 11:15:00
3:55 AM,37.4,26.6,65,29.75,10.0,South,11.5,17.3,N/A,,Partly Cloudy,180,2013-03-06 11:55:00
4:15 AM,37.4,24.8,60,29.76,10.0,South,8.1,16.1,N/A,,Clear,180,2013-03-06 12:15:00
4:35 AM,37.4,24.8,60,29.76,10.0,SSW,4.6,-,N/A,,Scattered Clouds,210,2013-03-06 12:35:00
4:55 AM,39.2,24.8,56,29.77,10.0,SW,9.2,20.7,N/A,Rain,Light Rain,220,2013-03-06 12:55:00
5:15 AM,37.4,28.4,70,29.77,5.0,SW,16.1,32.2,N/A,Snow,Light Snow,230,2013-03-06 13:15:00
5:35 AM,35.6,28.4,75,29.77,10.0,SSW,5.8,-,N/A,,Mostly Cloudy,200,2013-03-06 13:35:00
5:55 AM,33.8,32.0,93,29.78,1.5,SSW,5.8,20.7,N/A,Snow,Light Snow,200,2013-03-06 13:55:00
6:15 AM,32.0,32.0,100,29.78,1.2,South,6.9,-,N/A,Snow,Light Snow,170,2013-03-06 14:15:00
6:35 AM,32.0,32.0,100,29.78,2.5,South,8.1,-,N/A,Snow,Light Snow,180,2013-03-06 14:35:00
6:55 AM,32.0,32.0,100,29.79,1.5,SSW,8.1,-,N/A,Snow,Light Snow,210,2013-03-06 14:55:00
7:15 AM,32.0,32.0,100,29.79,3.0,South,6.9,-,N/A,Snow,Light Snow,180,2013-03-06 15:15:00
7:35 AM,33.8,32.0,93,29.80,9.0,SSW,5.8,-,N/A,Rain,Light Rain,210,2013-03-06 15:35:00
7:55 AM,33.8,32.0,93,29.82,6.0,SSW,5.8,-,N/A,Rain,Light Rain,200,2013-03-06 15:55:00
8:15 AM,33.8,32.0,93,29.83,7.0,South,5.8,-,N/A,Rain,Light Rain,190,2013-03-06 16:15:00
8:35 AM,32.0,32.0,100,29.85,1.0,SSW,10.4,18.4,N/A,Snow,Light Snow,210,2013-03-06 16:35:00
8:55 AM,32.0,30.2,93,29.87,0.5,SW,6.9,19.6,N/A,Snow,Snow,230,2013-03-06 16:55:00
9:15 AM,32.0,28.4,87,29.88,5.0,SSW,6.9,-,N/A,Snow,Light Snow,200,2013-03-06 17:15:00
9:35 AM,33.8,30.2,87,29.88,5.0,South,12.7,-,N/A,Snow,Light Snow,190,2013-03-06 17:35:00
9:55 AM,33.8,28.4,81,29.89,5.0,SSE,4.6,16.1,N/A,Snow,Light Snow,160,2013-03-06 17:55:00
10:15 AM,35.6,26.6,70,29.90,10.0,SW,6.9,-,N/A,Snow,Light Snow,230,2013-03-06 18:15:00
10:35 AM,35.6,23.0,60,29.91,10.0,South,8.1,17.3,N/A,,Mostly Cloudy,180,2013-03-06 18:35:00
10:55 AM,35.6,19.4,52,29.92,10.0,SSW,16.1,26.5,N/A,,Mostly Cloudy,200,2013-03-06 18:55:00
11:15 AM,37.4,19.4,48,29.92,10.0,SSW,15.0,23.0,N/A,,Partly Cloudy,200,2013-03-06 19:15:00
11:35 AM,39.2,17.6,42,29.93,10.0,SW,11.5,24.2,N/A,,Clear,230,2013-03-06 19:35:00
11:55 AM,39.2,15.8,39,29.92,10.0,SW,16.1,32.2,N/A,,Clear,220,2013-03-06 19:55:00
12:15 PM,41.0,12.2,31,29.93,10.0,SW,24.2,33.4,N/A,,Clear,230,2013-03-06 20:15:00
12:35 PM,39.2,14.0,36,29.93,10.0,SW,15.0,31.1,N/A,,Clear,220,2013-03-06 20:35:00
12:55 PM,39.2,14.0,36,29.93,10.0,SW,16.1,34.5,N/A,,Clear,220,2013-03-06 20:55:00
1:15 PM,41.0,15.8,36,29.93,10.0,SSW,17.3,28.8,N/A,,Clear,210,2013-03-06 21:15:00
1:35 PM,41.0,15.8,36,29.93,10.0,SSW,11.5,26.5,N/A,,Clear,210,2013-03-06 21:35:00
1:55 PM,41.0,17.6,39,29.94,10.0,SSW,12.7,23.0,N/A,,Clear,210,2013-03-06 21:55:00
2:15 PM,41.0,17.6,39,29.94,10.0,SW,11.5,21.9,N/A,,Clear,230,2013-03-06 22:15:00
2:35 PM,42.8,17.6,36,29.94,10.0,SSW,6.9,25.3,N/A,,Mostly Cloudy,210,2013-03-06 22:35:00
2:55 PM,41.0,17.6,39,29.95,10.0,South,10.4,28.8,N/A,,Overcast,190,2013-03-06 22:55:00
3:15 PM,41.0,17.6,39,29.94,10.0,South,15.0,26.5,N/A,,Overcast,190,2013-03-06 23:15:00
3:35 PM,41.0,15.8,36,29.94,10.0,SSW,15.0,23.0,N/A,,Mostly Cloudy,210,2013-03-06 23:35:00
3:55 PM,41.0,14.0,33,29.93,10.0,WSW,12.7,25.3,N/A,,Partly Cloudy,240,2013-03-06 23:55:00
4:15 PM,41.0,15.8,36,29.92,10.0,West,18.4,26.5,N/A,,Clear,260,2013-03-07 00:15:00
4:35 PM,41.0,15.8,36,29.91,10.0,West,23.0,31.1,N/A,,Clear,260,2013-03-07 00:35:00
4:55 PM,39.2,15.8,39,29.90,10.0,West,24.2,32.2,N/A,,Clear,260,2013-03-07 00:55:00
5:15 PM,39.2,15.8,39,29.90,10.0,WSW,17.3,29.9,N/A,,Clear,250,2013-03-07 01:15:00
5:35 PM,39.2,17.6,42,29.92,10.0,SW,8.1,18.4,N/A,,Clear,220,2013-03-07 01:35:00
5:55 PM,37.4,17.6,45,29.92,10.0,SW,8.1,19.6,N/A,,Clear,220,2013-03-07 01:55:00
6:15 PM,37.4,17.6,45,29.91,10.0,WSW,8.1,-,N/A,,Clear,240,2013-03-07 02:15:00
6:35 PM,37.4,19.4,48,29.92,10.0,South,4.6,21.9,N/A,,Clear,170,2013-03-07 02:35:00
6:55 PM,37.4,17.6,45,29.91,10.0,West,9.2,-,N/A,,Clear,260,2013-03-07 02:55:00
7:35 PM,37.4,17.6,45,29.91,10.0,WSW,5.8,-,N/A,,Clear,240,2013-03-07 03:35:00
7:55 PM,37.4,15.8,41,29.91,10.0,SSW,5.8,-,N/A,,Clear,210,2013-03-07 03:55:00
8:15 PM,35.6,17.6,48,29.92,10.0,SSE,5.8,-,N/A,,Clear,150,2013-03-07 04:15:00
8:35 PM,35.6,17.6,48,29.92,10.0,South,5.8,-,N/A,,Clear,170,2013-03-07 04:35:00
8:55 PM,35.6,15.8,44,29.93,10.0,SE,4.6,-,N/A,,Clear,140,2013-03-07 04:55:00
9:15 PM,32.0,17.6,55,29.94,10.0,East,6.9,-,N/A,,Clear,80,2013-03-07 05:15:00
9:35 PM,32.0,17.6,55,29.94,10.0,Calm,Calm,-,N/A,,Clear,0,2013-03-07 05:35:00
9:55 PM,32.0,17.6,55,29.94,10.0,North,6.9,-,N/A,,Clear,350,2013-03-07 05:55:00
10:15 PM,32.0,19.4,60,29.95,10.0,East,3.5,-,N/A,,Clear,80,2013-03-07 06:15:00
10:35 PM,32.0,19.4,60,29.94,10.0,Calm,Calm,-,N/A,,Clear,0,2013-03-07 06:35:00
10:55 PM,32.0,19.4,60,29.94,10.0,West,3.5,-,N/A,,Clear,280,2013-03-07 06:55:00
11:15 PM,32.0,17.6,55,29.93,10.0,Calm,Calm,-,N/A,,Clear,0,2013-03-07 07:15:00
11:35 PM,33.8,17.6,52,29.93,10.0,North,3.5,-,N/A,,Clear,10,2013-03-07 07:35:00
11:55 PM,28.4,21.2,74,29.93,10.0,East,5.8,-,N/A,,Clear,100,2013-03-07 07:55:00